TimeCST,TemperatureF,Dew PointF,Humidity,Sea Level PressureIn,VisibilityMPH,Wind Direction,Wind SpeedMPH,Gust SpeedMPH,PrecipitationIn,Events,Conditions,WindDirDegrees,DateUTC
12:56 AM,14.0,10.0,84,30.17,10.0,NNE,10.4,-,N/A,,Mostly Cloudy,30,2012-11-29 06:56:00
1:07 AM,14.0,10.4,86,30.11,10.0,NNE,9.2,-,N/A,,Scattered Clouds,20,2012-11-29 07:07:00
1:56 AM,12.9,9.0,84,30.17,10.0,NNE,10.4,-,N/A,,Clear,30,2012-11-29 07:56:00
2:56 AM,12.9,8.1,81,30.18,10.0,NNE,10.4,-,N/A,,Partly Cloudy,30,2012-11-29 08:56:00
3:09 AM,12.2,6.8,79,30.11,10.0,NE,9.2,-,N/A,,Mostly Cloudy,40,2012-11-29 09:09:00
3:40 AM,12.2,6.8,79,30.11,10.0,NE,10.4,-,N/A,,Scattered Clouds,40,2012-11-29 09:40:00
3:56 AM,12.0,6.1,77,30.18,10.0,NE,9.2,-,N/A,,Clear,50,2012-11-29 09:56:00
4:56 AM,10.9,6.1,81,30.17,10.0,NE,9.2,-,N/A,,Clear,50,2012-11-29 10:56:00
5:56 AM,10.9,3.0,70,30.19,10.0,NE,9.2,-,N/A,,Clear,50,2012-11-29 11:56:00
6:56 AM,10.9,3.0,70,30.18,10.0,NE,8.1,-,N/A,,Clear,50,2012-11-29 12:56:00
7:43 AM,10.4,3.2,73,30.11,10.0,ENE,11.5,-,N/A,,Mostly Cloudy,60,2012-11-29 13:43:00
7:56 AM,10.9,5.0,77,30.19,10.0,ENE,12.7,-,N/A,,Overcast,60,2012-11-29 13:56:00
8:56 AM,10.9,6.1,81,30.22,10.0,ENE,13.8,-,N/A,,Overcast,60,2012-11-29 14:56:00
9:56 AM,12.0,7.0,80,30.21,10.0,ENE,15.0,-,N/A,,Overcast,70,2012-11-29 15:56:00
10:17 AM,12.2,8.6,85,30.13,10.0,ENE,12.7,-,N/A,,Scattered Clouds,70,2012-11-29 16:17:00
10:56 AM,14.0,8.1,77,30.22,10.0,ENE,15.0,-,N/A,,Clear,70,2012-11-29 16:56:00
11:39 AM,15.8,8.6,73,30.11,10.0,ENE,15.0,-,N/A,,Mostly Cloudy,70,2012-11-29 17:39:00
11:56 AM,16.0,8.1,71,30.20,10.0,East,12.7,-,N/A,,Overcast,90,2012-11-29 17:56:00
12:09 PM,15.8,8.6,73,30.10,10.0,East,13.8,-,N/A,,Overcast,80,2012-11-29 18:09:00
12:56 PM,17.1,9.0,71,30.17,10.0,ENE,12.7,-,N/A,,Overcast,70,2012-11-29 18:56:00
1:56 PM,19.0,10.9,71,30.17,10.0,ENE,10.4,-,N/A,,Overcast,70,2012-11-29 19:56:00
2:56 PM,19.0,10.9,71,30.15,10.0,ENE,13.8,-,N/A,,Overcast,70,2012-11-29 20:56:00
3:56 PM,18.0,10.9,74,30.17,10.0,ENE,10.4,-,N/A,,Overcast,70,2012-11-29 21:56:00
4:56 PM,18.0,10.9,74,30.15,10.0,ENE,12.7,-,N/A,,Overcast,70,2012-11-29 22:56:00
5:56 PM,18.0,10.9,74,30.17,10.0,NE,11.5,-,N/A,,Overcast,50,2012-11-29 23:56:00
6:56 PM,18.0,10.9,74,30.19,10.0,East,12.7,-,N/A,,Overcast,80,2012-11-30 00:56:00
7:56 PM,18.0,10.9,74,30.20,10.0,NE,8.1,-,N/A,,Overcast,50,2012-11-30 01:56:00
8:56 PM,18.0,12.0,78,30.21,10.0,ENE,9.2,-,N/A,,Overcast,60,2012-11-30 02:56:00
9:35 PM,17.6,12.2,79,30.11,10.0,ENE,6.9,-,N/A,,Overcast,60,2012-11-30 03:35:00
9:56 PM,18.0,10.9,74,30.19,10.0,ENE,6.9,-,N/A,,Overcast,70,2012-11-30 03:56:00
10:56 PM,19.0,12.0,74,30.20,10.0,ENE,4.6,-,N/A,,Overcast,70,2012-11-30 04:56:00
11:14 PM,19.4,12.2,74,30.12,10.0,NNE,3.5,-,N/A,,Overcast,30,2012-11-30 05:14:00
11:56 PM,19.0,12.0,74,30.19,10.0,East,6.9,-,N/A,,Overcast,80,2012-11-30 05:56:00